N881KD KPBI-MYNN

Flight info

Callsign N881KD
Flight time 0h 34m
Altitude 23000
Route MIXAE4 HALBI DCT HANKX DCT ZQA
Aircraft CL60/M-SBDE1E2E3FGHIJ1J4J5J7M3RWXYZ/LB1V1D1

Departure

Time 2026-04-20 13:23
Airport Palm Beach International Airport (KPBI)

Arrival

Time 2026-04-20 13:58
Airport Lynden Pindling International Airport (MYNN)
Time Latitude Longitude Altitude Speed Heading
2026-04-20 13:19 26.68052 -80.10026 20 ft 14 kts 274°
2026-04-20 13:19 26.68056 -80.10152 20 ft 18 kts 272°
2026-04-20 13:19 26.68063 -80.10307 20 ft 21 kts 272°
2026-04-20 13:19 26.68070 -80.10473 20 ft 15 kts 272°
2026-04-20 13:20 26.68072 -80.10523 20 ft 7 kts 272°
2026-04-20 13:20 26.68072 -80.10534 20 ft 7 kts 272°
2026-04-20 13:21 26.68075 -80.10596 20 ft 10 kts 272°
2026-04-20 13:21 26.68142 -80.10619 20 ft 13 kts
2026-04-20 13:21 26.68201 -80.10636 20 ft 11 kts 292°
2026-04-20 13:21 26.68206 -80.10722 20 ft 7 kts 272°
2026-04-20 13:22 26.68209 -80.10774 20 ft 7 kts 272°
2026-04-20 13:22 26.68242 -80.10832 20 ft 11 kts 347°
2026-04-20 13:22 26.68311 -80.10819 20 ft 11 kts 53°
2026-04-20 13:22 26.68318 -80.10771 20 ft 7 kts 91°
2026-04-20 13:23 26.68302 -80.10374 21 ft 109 kts 92°
2026-04-20 13:23 26.68245 -80.09189 346 ft 179 kts 94°
2026-04-20 13:23 26.68164 -80.07745 1325 ft 201 kts 94°
2026-04-20 13:23 26.68114 -80.06085 1959 ft 225 kts 81°
2026-04-20 13:24 26.68690 -80.04501 2295 ft 219 kts 56°
2026-04-20 13:24 26.69509 -80.03033 2603 ft 235 kts 63°
2026-04-20 13:24 26.70222 -80.01354 3993 ft 250 kts 64°
2026-04-20 13:24 26.70967 -79.99609 5404 ft 264 kts 63°
2026-04-20 13:25 26.71629 -79.97613 6336 ft 288 kts 79°
2026-04-20 13:25 26.71587 -79.95355 6770 ft 292 kts 96°
2026-04-20 13:25 26.71315 -79.93110 6939 ft 295 kts 96°
2026-04-20 13:25 26.71039 -79.90756 7720 ft 318 kts 96°
2026-04-20 13:26 26.70763 -79.88389 9529 ft 309 kts 96°
2026-04-20 13:26 26.70492 -79.86066 11131 ft 305 kts 96°
2026-04-20 13:26 26.70211 -79.83642 11875 ft 331 kts 97°
2026-04-20 13:26 26.69904 -79.80984 12297 ft 359 kts 97°
2026-04-20 13:27 26.69576 -79.78155 12977 ft 375 kts 97°
2026-04-20 13:27 26.69234 -79.75212 13817 ft 385 kts 97°
2026-04-20 13:27 26.68887 -79.72224 14671 ft 392 kts 97°
2026-04-20 13:27 26.68536 -79.69192 15515 ft 400 kts 97°
2026-04-20 13:28 26.68175 -79.66094 16348 ft 408 kts 97°
2026-04-20 13:28 26.67912 -79.62931 17146 ft 415 kts 91°
2026-04-20 13:28 26.67889 -79.59671 17914 ft 422 kts 90°
2026-04-20 13:28 26.67881 -79.56349 18670 ft 429 kts 90°
2026-04-20 13:29 26.67870 -79.53025 19397 ft 436 kts 90°
2026-04-20 13:29 26.67858 -79.49593 20112 ft 443 kts 90°
2026-04-20 13:29 26.67845 -79.46138 20824 ft 449 kts 90°
2026-04-20 13:29 26.67829 -79.42646 21508 ft 455 kts 89°
2026-04-20 13:30 26.67812 -79.39085 22177 ft 462 kts 89°
2026-04-20 13:30 26.67794 -79.35468 22787 ft 468 kts 89°
2026-04-20 13:30 26.67774 -79.31930 23118 ft 473 kts 90°
2026-04-20 13:30 26.67753 -79.28220 23232 ft 476 kts 90°
2026-04-20 13:31 26.67732 -79.24536 23289 ft 475 kts 90°
2026-04-20 13:31 26.67709 -79.20855 23256 ft 473 kts 90°
2026-04-20 13:31 26.67590 -79.17176 23246 ft 471 kts 97°
2026-04-20 13:31 26.66826 -79.13608 23237 ft 470 kts 112°
2026-04-20 13:32 26.65368 -79.10389 23221 ft 469 kts 125°
2026-04-20 13:32 26.63564 -79.07319 23158 ft 475 kts 126°
2026-04-20 13:32 26.61716 -79.04189 23127 ft 479 kts 126°
2026-04-20 13:32 26.59880 -79.01074 23115 ft 481 kts 126°
2026-04-20 13:33 26.58030 -78.97937 23115 ft 483 kts 126°
2026-04-20 13:33 26.56161 -78.94769 23112 ft 484 kts 126°
2026-04-20 13:33 26.54319 -78.91648 23111 ft 484 kts 126°
2026-04-20 13:33 26.52453 -78.88488 23112 ft 484 kts 126°
2026-04-20 13:34 26.50612 -78.85373 23111 ft 484 kts 126°
2026-04-20 13:34 26.48757 -78.82237 23111 ft 484 kts 126°
2026-04-20 13:34 26.46907 -78.79112 23111 ft 484 kts 126°
2026-04-20 13:34 26.45055 -78.75984 23111 ft 484 kts 126°
2026-04-20 13:35 26.43186 -78.72829 23112 ft 484 kts 126°
2026-04-20 13:35 26.41340 -78.69716 23112 ft 484 kts 126°
2026-04-20 13:35 26.39483 -78.66586 23111 ft 484 kts 126°
2026-04-20 13:35 26.37626 -78.63459 23111 ft 483 kts 126°
2026-04-20 13:36 26.35790 -78.60368 23096 ft 472 kts 126°
2026-04-20 13:36 26.34005 -78.57362 22880 ft 462 kts 126°
2026-04-20 13:36 26.32231 -78.54379 22500 ft 457 kts 126°
2026-04-20 13:36 26.30484 -78.51444 22029 ft 450 kts 126°
2026-04-20 13:37 26.28784 -78.48589 21366 ft 446 kts 126°
2026-04-20 13:37 26.27063 -78.45702 20590 ft 442 kts 126°
2026-04-20 13:37 26.25374 -78.42873 19847 ft 438 kts 126°
2026-04-20 13:37 26.23705 -78.40075 19125 ft 432 kts 126°
2026-04-20 13:38 26.22068 -78.37331 18409 ft 427 kts 126°
2026-04-20 13:38 26.20419 -78.34572 17667 ft 421 kts 126°
2026-04-20 13:38 26.18821 -78.31899 16953 ft 414 kts 126°
2026-04-20 13:38 26.17217 -78.29218 16221 ft 408 kts 126°
2026-04-20 13:39 26.15647 -78.26594 15500 ft 402 kts 126°
2026-04-20 13:39 26.14110 -78.24028 14787 ft 397 kts 126°
2026-04-20 13:39 26.12591 -78.21492 14068 ft 391 kts 125°
2026-04-20 13:39 26.11104 -78.19011 13408 ft 384 kts 125°
2026-04-20 13:40 26.09620 -78.16538 13077 ft 383 kts 125°
2026-04-20 13:40 26.08147 -78.14085 12986 ft 382 kts 125°
2026-04-20 13:40 26.06656 -78.11602 12992 ft 382 kts 125°
2026-04-20 13:40 26.05173 -78.09135 12998 ft 382 kts 124°
2026-04-20 13:41 26.03685 -78.06659 13004 ft 382 kts 124°
2026-04-20 13:41 26.02210 -78.04207 13008 ft 382 kts 124°
2026-04-20 13:41 26.00727 -78.01743 13003 ft 381 kts 124°
2026-04-20 13:41 25.99239 -77.99271 13010 ft 381 kts 124°
2026-04-20 13:42 25.97675 -77.96938 13003 ft 379 kts 133°
2026-04-20 13:42 25.93647 -77.93487 11848 ft 362 kts 156°
2026-04-20 13:42 25.91328 -77.92434 11408 ft 348 kts 161°
2026-04-20 13:43 25.90131 -77.91926 11414 ft 334 kts 161°
2026-04-20 13:43 25.88935 -77.91416 11404 ft 322 kts 161°
2026-04-20 13:43 25.86856 -77.90527 11199 ft 309 kts 161°
2026-04-20 13:44 25.84864 -77.89685 10835 ft 304 kts 161°
2026-04-20 13:44 25.82858 -77.88845 10407 ft 301 kts 161°
2026-04-20 13:44 25.80906 -77.88034 10078 ft 295 kts 161°
2026-04-20 13:44 25.78958 -77.87234 9988 ft 298 kts 161°
2026-04-20 13:45 25.76999 -77.86440 9995 ft 298 kts 161°
2026-04-20 13:45 25.75032 -77.85654 10000 ft 300 kts 161°
2026-04-20 13:45 25.73062 -77.84878 10002 ft 300 kts 161°
2026-04-20 13:45 25.71076 -77.84101 10003 ft 301 kts 161°
2026-04-20 13:46 25.69084 -77.83324 10003 ft 301 kts 161°
2026-04-20 13:46 25.67096 -77.82552 10005 ft 300 kts 161°
2026-04-20 13:46 25.65099 -77.81777 10003 ft 300 kts 161°
2026-04-20 13:46 25.63093 -77.81001 10007 ft 300 kts 161°
2026-04-20 13:47 25.61111 -77.80234 10003 ft 300 kts 161°
2026-04-20 13:47 25.59167 -77.79481 9977 ft 293 kts 161°
2026-04-20 13:47 25.57233 -77.78731 9503 ft 291 kts 161°
2026-04-20 13:47 25.55317 -77.77988 8918 ft 292 kts 161°
2026-04-20 13:48 25.53410 -77.77252 8380 ft 291 kts 161°
2026-04-20 13:48 25.51507 -77.76519 7861 ft 289 kts 161°
2026-04-20 13:48 25.49601 -77.75787 7334 ft 287 kts 161°
2026-04-20 13:48 25.47707 -77.75066 6892 ft 284 kts 161°
2026-04-20 13:49 25.45837 -77.74365 6538 ft 280 kts 161°
2026-04-20 13:49 25.43994 -77.73683 6189 ft 280 kts 161°
2026-04-20 13:49 25.42156 -77.73014 5822 ft 272 kts 161°
2026-04-20 13:49 25.40391 -77.72378 5472 ft 263 kts 161°
2026-04-20 13:50 25.38661 -77.71757 5131 ft 254 kts 161°
2026-04-20 13:50 25.37001 -77.71167 4805 ft 247 kts 161°
2026-04-20 13:50 25.35392 -77.70596 4588 ft 241 kts 161°
2026-04-20 13:50 25.33797 -77.70031 4425 ft 240 kts 161°
2026-04-20 13:51 25.32190 -77.69461 4242 ft 242 kts 161°
2026-04-20 13:51 25.30579 -77.68887 4058 ft 241 kts 161°
2026-04-20 13:51 25.28980 -77.68316 3886 ft 240 kts 161°
2026-04-20 13:51 25.27381 -77.67743 3711 ft 239 kts 161°
2026-04-20 13:52 25.25806 -77.67178 3538 ft 238 kts 161°
2026-04-20 13:52 25.24222 -77.66609 3360 ft 237 kts 161°
2026-04-20 13:52 25.22642 -77.66036 3192 ft 236 kts 159°
2026-04-20 13:52 25.21242 -77.65148 3029 ft 232 kts 137°
2026-04-20 13:53 25.20082 -77.63992 3015 ft 216 kts 137°
2026-04-20 13:53 25.19046 -77.62930 3053 ft 194 kts 134°
2026-04-20 13:53 25.18077 -77.61878 3020 ft 193 kts 134°
2026-04-20 13:53 25.17126 -77.60837 3004 ft 191 kts 134°
2026-04-20 13:54 25.16177 -77.59792 2978 ft 192 kts 134°
2026-04-20 13:54 25.15234 -77.58742 2737 ft 193 kts 133°
2026-04-20 13:54 25.14314 -77.57719 2526 ft 182 kts 134°
2026-04-20 13:54 25.13441 -77.56747 2270 ft 170 kts 133°
2026-04-20 13:55 25.12619 -77.55832 2068 ft 167 kts 133°
2026-04-20 13:55 25.11805 -77.54926 1841 ft 166 kts 133°
2026-04-20 13:55 25.10991 -77.54018 1615 ft 159 kts 133°
2026-04-20 13:55 25.10270 -77.53223 1481 ft 134 kts 133°
2026-04-20 13:56 25.09622 -77.52503 1264 ft 131 kts 133°
2026-04-20 13:56 25.08984 -77.51791 1092 ft 128 kts 133°
2026-04-20 13:56 25.08360 -77.51096 919 ft 128 kts 132°
2026-04-20 13:56 25.07735 -77.50401 757 ft 127 kts 132°
2026-04-20 13:57 25.07109 -77.49706 589 ft 127 kts 132°
2026-04-20 13:57 25.06480 -77.49013 406 ft 130 kts 132°
2026-04-20 13:57 25.05842 -77.48303 267 ft 130 kts 131°
2026-04-20 13:57 25.05219 -77.47611 88 ft 125 kts 131°
2026-04-20 13:58 25.04636 -77.46955 24 ft 107 kts 134°
2026-04-20 13:58 25.04315 -77.46599 23 ft 41 kts 131°
2026-04-20 13:58 25.04168 -77.46401 23 ft 29 kts 116°
2026-04-20 13:58 25.04114 -77.46259 23 ft 10 kts 107°
2026-04-20 13:59 25.04108 -77.46201 23 ft 5 kts 68°
2026-04-20 13:59 25.04150 -77.46170 23 ft 10 kts 347°
2026-04-20 13:59 25.04180 -77.46177 23 ft 7 kts 21°
2026-04-20 13:59 25.04211 -77.46133 23 ft 5 kts 61°
2026-04-20 14:00 25.04233 -77.46091 23 ft 6 kts 60°
2026-04-20 14:00 25.04250 -77.46034 23 ft 7 kts 76°
2026-04-20 14:00 25.04270 -77.46027 23 ft 2 kts 331°
2026-04-20 14:00 25.04277 -77.46030 23 ft 0 kts 336°